TimeMST,TemperatureF,Dew PointF,Humidity,Sea Level PressureIn,VisibilityMPH,Wind Direction,Wind SpeedMPH,Gust SpeedMPH,PrecipitationIn,Events,Conditions,WindDirDegrees,DateUTC
12:53 AM,27.0,25.0,92,30.08,10.0,Calm,Calm,-,N/A,,Clear,0,2012-11-30 07:53:00
1:53 AM,26.1,24.1,92,30.07,9.0,Calm,Calm,-,N/A,,Clear,0,2012-11-30 08:53:00
2:53 AM,25.0,23.0,92,30.06,9.0,Calm,Calm,-,N/A,,Clear,0,2012-11-30 09:53:00
3:53 AM,25.0,24.1,96,30.05,9.0,Calm,Calm,-,N/A,,Clear,0,2012-11-30 10:53:00
4:53 AM,25.0,23.0,92,30.04,10.0,South,3.5,-,N/A,,Clear,170,2012-11-30 11:53:00
5:53 AM,27.0,24.1,89,30.05,10.0,Calm,Calm,-,N/A,,Clear,0,2012-11-30 12:53:00
6:53 AM,27.0,24.1,89,30.06,10.0,South,4.6,-,N/A,,Clear,180,2012-11-30 13:53:00
7:53 AM,28.0,25.0,88,30.06,10.0,WSW,4.6,-,N/A,,Clear,250,2012-11-30 14:53:00
8:53 AM,37.9,33.1,83,30.01,10.0,Calm,Calm,-,N/A,,Clear,0,2012-11-30 15:53:00
9:53 AM,50.0,35.1,57,29.98,10.0,SW,12.7,-,N/A,,Clear,220,2012-11-30 16:53:00
10:53 AM,57.0,37.9,49,29.92,10.0,Variable,6.9,-,N/A,,Clear,0,2012-11-30 17:53:00
11:53 AM,61.0,34.0,36,29.87,10.0,SW,15.0,-,N/A,,Clear,220,2012-11-30 18:53:00
12:53 PM,61.0,33.1,35,29.85,10.0,SW,16.1,24.2,N/A,,Clear,220,2012-11-30 19:53:00
1:53 PM,63.0,32.0,31,29.82,10.0,SSW,9.2,-,N/A,,Clear,210,2012-11-30 20:53:00
2:53 PM,63.0,32.0,31,29.81,10.0,SW,12.7,-,N/A,,Clear,220,2012-11-30 21:53:00
3:53 PM,57.0,28.9,34,29.81,10.0,South,13.8,-,N/A,,Clear,190,2012-11-30 22:53:00
4:53 PM,55.9,28.0,34,29.79,10.0,South,17.3,-,N/A,,Clear,180,2012-11-30 23:53:00
5:53 PM,54.0,28.0,37,29.80,10.0,South,16.1,-,N/A,,Clear,190,2012-12-01 00:53:00
6:53 PM,48.9,28.9,46,29.79,10.0,South,17.3,-,N/A,,Clear,170,2012-12-01 01:53:00
7:53 PM,51.1,28.0,41,29.78,10.0,South,12.7,-,N/A,,Clear,190,2012-12-01 02:53:00
8:53 PM,51.1,28.0,41,29.76,10.0,South,17.3,-,N/A,,Clear,190,2012-12-01 03:53:00
9:53 PM,46.0,28.0,50,29.77,10.0,SSW,4.6,-,N/A,,Clear,200,2012-12-01 04:53:00
10:53 PM,44.1,30.0,58,29.77,10.0,Calm,Calm,-,N/A,,Clear,0,2012-12-01 05:53:00
11:53 PM,44.1,30.0,58,29.76,10.0,ENE,3.5,-,N/A,,Clear,70,2012-12-01 06:53:00